Wetterdaten: Donnerstag, 08.10.2015
Datum Zeit Temp. A. Feuchte A. Luftdruck Regen Wind Richtung Richtung Sonnenschein ET UV Solar Taupunkt Windchill Windben Empfang
08.10.2015 00:00 12,2 C 96 % 1015,8 hPa 0,0 l/m 3,2 km/h (1 Bft) N-NW 343 0 min 0,000 mm 0,0 UV-I 0 W/m 11,6 C 12,2 C 4,0 km/h (1 Bft) 0,00 %
08.10.2015 00:05 12,2 C 96 % 1015,8 hPa 0,0 l/m 2,2 km/h (1 Bft) W-SW 251 0 min 0,000 mm 0,0 UV-I 0 W/m 11,6 C 12,2 C 7,9 km/h (2 Bft) 0,00 %
08.10.2015 00:10 12,2 C 96 % 1016,0 hPa 0,3 l/m 4,3 km/h (1 Bft) S 181 0 min 0,000 mm 0,0 UV-I 0 W/m 11,6 C 12,2 C 11,9 km/h (2 Bft) 0,00 %
08.10.2015 00:15 12,1 C 97 % 1015,8 hPa 0,0 l/m 8,3 km/h (2 Bft) S 191 0 min 0,000 mm 0,0 UV-I 0 W/m 11,6 C 10,9 C 15,8 km/h (3 Bft) 0,00 %
08.10.2015 00:20 12,1 C 96 % 1015,9 hPa 0,0 l/m 2,9 km/h (1 Bft) O 91 0 min 0,000 mm 0,0 UV-I 0 W/m 11,5 C 12,1 C 4,0 km/h (1 Bft) 0,00 %
08.10.2015 00:25 12,0 C 97 % 1015,7 hPa 0,3 l/m 0,7 km/h (0 Bft) N-NW 341 0 min 0,000 mm 0,0 UV-I 0 W/m 11,5 C 12,0 C 4,0 km/h (1 Bft) 0,00 %
08.10.2015 00:30 11,9 C 97 % 1015,9 hPa 0,0 l/m 10,8 km/h (2 Bft) S-SW 198 0 min 0,000 mm 0,0 UV-I 0 W/m 11,4 C 9,3 C 11,9 km/h (2 Bft) 0,00 %
08.10.2015 00:35 11,8 C 97 % 1016,1 hPa 0,0 l/m 3,2 km/h (1 Bft) W-SW 240 0 min 0,000 mm 0,0 UV-I 0 W/m 11,3 C 11,8 C 4,0 km/h (1 Bft) 0,00 %
08.10.2015 00:40 11,7 C 97 % 1016,1 hPa 0,0 l/m 4,0 km/h (1 Bft) SO 140 0 min 0,000 mm 0,0 UV-I 0 W/m 11,2 C 11,7 C 7,9 km/h (2 Bft) 0,00 %
08.10.2015 00:45 11,6 C 97 % 1016,2 hPa 0,3 l/m 12,2 km/h (2 Bft) S 189 0 min 0,000 mm 0,0 UV-I 0 W/m 11,1 C 8,3 C 19,8 km/h (3 Bft) 0,00 %
08.10.2015 00:50 11,6 C 97 % 1016,2 hPa 0,0 l/m 9,0 km/h (2 Bft) S 171 0 min 0,000 mm 0,0 UV-I 0 W/m 11,1 C 9,9 C 15,8 km/h (3 Bft) 0,00 %
08.10.2015 00:55 11,5 C 97 % 1016,2 hPa 0,0 l/m 17,3 km/h (3 Bft) S 181 0 min 0,000 mm 0,0 UV-I 0 W/m 11,0 C 6,1 C 24,1 km/h (4 Bft) 0,00 %
08.10.2015 01:00 11,4 C 97 % 1016,2 hPa 0,3 l/m 7,2 km/h (2 Bft) S-SW 200 0 min 0,000 mm 0,0 UV-I 0 W/m 10,9 C 10,9 C 11,9 km/h (2 Bft) 0,00 %
08.10.2015 01:05 11,3 C 97 % 1016,2 hPa 0,0 l/m 8,3 km/h (2 Bft) SW 217 0 min 0,000 mm 0,0 UV-I 0 W/m 10,8 C 10,0 C 11,9 km/h (2 Bft) 0,00 %
08.10.2015 01:10 11,3 C 97 % 1016,0 hPa 0,3 l/m 11,9 km/h (2 Bft) S 188 0 min 0,000 mm 0,0 UV-I 0 W/m 10,8 C 8,1 C 15,8 km/h (3 Bft) 0,00 %
08.10.2015 01:15 11,3 C 97 % 1016,1 hPa 0,0 l/m 5,8 km/h (2 Bft) W-SW 252 0 min 0,000 mm 0,0 UV-I 0 W/m 10,8 C 11,3 C 7,9 km/h (2 Bft) 0,00 %
08.10.2015 01:20 11,3 C 97 % 1016,3 hPa 0,3 l/m 6,8 km/h (2 Bft) O 93 0 min 0,000 mm 0,0 UV-I 0 W/m 10,8 C 11,0 C 11,9 km/h (2 Bft) 0,00 %
08.10.2015 01:25 11,3 C 97 % 1016,2 hPa 0,0 l/m 11,5 km/h (2 Bft) S-SW 209 0 min 0,000 mm 0,0 UV-I 0 W/m 10,8 C 8,3 C 15,8 km/h (3 Bft) 0,00 %
08.10.2015 01:30 11,3 C 97 % 1016,3 hPa 0,0 l/m 9,0 km/h (2 Bft) S-SW 207 0 min 0,000 mm 0,0 UV-I 0 W/m 10,8 C 9,6 C 11,9 km/h (2 Bft) 0,00 %
08.10.2015 01:35 11,4 C 97 % 1016,2 hPa 0,3 l/m 4,0 km/h (1 Bft) SW 224 0 min 0,000 mm 0,0 UV-I 0 W/m 10,9 C 11,4 C 7,9 km/h (2 Bft) 0,00 %
08.10.2015 01:40 11,4 C 97 % 1016,2 hPa 0,0 l/m 14,8 km/h (3 Bft) SW 227 0 min 0,000 mm 0,0 UV-I 0 W/m 10,9 C 6,9 C 19,8 km/h (3 Bft) 0,00 %
08.10.2015 01:45 11,4 C 97 % 1016,4 hPa 0,3 l/m 5,4 km/h (1 Bft) S 178 0 min 0,000 mm 0,0 UV-I 0 W/m 10,9 C 11,4 C 7,9 km/h (2 Bft) 0,00 %
08.10.2015 01:50 11,4 C 97 % 1016,3 hPa 0,0 l/m 5,4 km/h (1 Bft) SO 127 0 min 0,000 mm 0,0 UV-I 0 W/m 10,9 C 11,4 C 7,9 km/h (2 Bft) 0,00 %
08.10.2015 01:55 11,4 C 97 % 1016,4 hPa 0,3 l/m 9,0 km/h (2 Bft) S-SW 200 0 min 0,000 mm 0,0 UV-I 0 W/m 10,9 C 9,7 C 15,8 km/h (3 Bft) 0,00 %
08.10.2015 02:00 11,4 C 97 % 1016,6 hPa 0,3 l/m 6,5 km/h (2 Bft) S 176 0 min 0,000 mm 0,0 UV-I 0 W/m 10,9 C 11,4 C 11,9 km/h (2 Bft) 0,00 %
08.10.2015 02:05 11,4 C 97 % 1016,5 hPa 0,3 l/m 1,4 km/h (1 Bft) SW 214 0 min 0,000 mm 0,0 UV-I 0 W/m 10,9 C 11,4 C 4,0 km/h (1 Bft) 0,00 %
08.10.2015 02:10 11,4 C 97 % 1016,6 hPa 0,3 l/m 8,3 km/h (2 Bft) SW 215 0 min 0,000 mm 0,0 UV-I 0 W/m 10,9 C 10,1 C 11,9 km/h (2 Bft) 0,00 %
08.10.2015 02:15 11,4 C 97 % 1016,8 hPa 0,6 l/m 5,8 km/h (2 Bft) S 189 0 min 0,000 mm 0,0 UV-I 0 W/m 10,9 C 11,4 C 7,9 km/h (2 Bft) 0,00 %
08.10.2015 02:20 11,4 C 97 % 1016,6 hPa 0,9 l/m 9,4 km/h (2 Bft) S 189 0 min 0,000 mm 0,0 UV-I 0 W/m 10,9 C 9,5 C 11,9 km/h (2 Bft) 0,00 %
08.10.2015 02:25 11,4 C 97 % 1016,6 hPa 0,6 l/m 6,5 km/h (2 Bft) S 183 0 min 0,000 mm 0,0 UV-I 0 W/m 10,9 C 11,4 C 7,9 km/h (2 Bft) 0,00 %
08.10.2015 02:30 11,4 C 97 % 1016,7 hPa 0,6 l/m 7,9 km/h (2 Bft) S-SW 206 0 min 0,000 mm 0,0 UV-I 0 W/m 10,9 C 10,4 C 11,9 km/h (2 Bft) 0,00 %
08.10.2015 02:35 11,4 C 97 % 1016,5 hPa 0,6 l/m 4,3 km/h (1 Bft) S-SW 192 0 min 0,000 mm 0,0 UV-I 0 W/m 10,9 C 11,4 C 7,9 km/h (2 Bft) 0,00 %
08.10.2015 02:40 11,4 C 97 % 1016,5 hPa 0,6 l/m 9,0 km/h (2 Bft) S-SW 208 0 min 0,000 mm 0,0 UV-I 0 W/m 10,9 C 9,7 C 11,9 km/h (2 Bft) 0,00 %
08.10.2015 02:45 11,3 C 97 % 1016,5 hPa 0,3 l/m 9,7 km/h (2 Bft) S-SW 200 0 min 0,000 mm 0,0 UV-I 0 W/m 10,8 C 9,2 C 15,8 km/h (3 Bft) 0,00 %
08.10.2015 02:50 11,3 C 97 % 1016,6 hPa 0,6 l/m 0,7 km/h (0 Bft) W-SW 256 0 min 0,000 mm 0,0 UV-I 0 W/m 10,8 C 11,3 C 4,0 km/h (1 Bft) 0,00 %
08.10.2015 02:55 11,3 C 97 % 1016,8 hPa 0,3 l/m 8,3 km/h (2 Bft) S 178 0 min 0,000 mm 0,0 UV-I 0 W/m 10,8 C 10,0 C 11,9 km/h (2 Bft) 0,00 %
08.10.2015 03:00 11,3 C 97 % 1016,8 hPa 0,9 l/m 5,8 km/h (2 Bft) N-NW 334 0 min 0,000 mm 0,0 UV-I 0 W/m 10,8 C 11,3 C 11,9 km/h (2 Bft) 0,00 %
08.10.2015 03:05 11,3 C 97 % 1016,8 hPa 0,6 l/m 7,2 km/h (2 Bft) S 178 0 min 0,000 mm 0,0 UV-I 0 W/m 10,8 C 10,8 C 7,9 km/h (2 Bft) 0,00 %
08.10.2015 03:10 11,3 C 97 % 1017,0 hPa 0,6 l/m 5,8 km/h (2 Bft) SO 142 0 min 0,000 mm 0,0 UV-I 0 W/m 10,8 C 11,3 C 7,9 km/h (2 Bft) 0,00 %
08.10.2015 03:15 11,3 C 97 % 1016,8 hPa 0,6 l/m 4,3 km/h (1 Bft) SO 125 0 min 0,000 mm 0,0 UV-I 0 W/m 10,8 C 11,3 C 11,9 km/h (2 Bft) 0,00 %
08.10.2015 03:20 11,3 C 97 % 1016,8 hPa 0,6 l/m 4,0 km/h (1 Bft) N 351 0 min 0,000 mm 0,0 UV-I 0 W/m 10,8 C 11,3 C 7,9 km/h (2 Bft) 0,00 %
08.10.2015 03:25 11,3 C 97 % 1017,1 hPa 0,6 l/m 3,2 km/h (1 Bft) NW 316 0 min 0,000 mm 0,0 UV-I 0 W/m 10,8 C 11,3 C 7,9 km/h (2 Bft) 0,00 %
08.10.2015 03:30 11,3 C 97 % 1016,8 hPa 0,6 l/m 6,5 km/h (2 Bft) S-SW 195 0 min 0,000 mm 0,0 UV-I 0 W/m 10,8 C 11,3 C 11,9 km/h (2 Bft) 0,00 %
08.10.2015 03:35 11,3 C 97 % 1016,7 hPa 0,3 l/m 6,5 km/h (2 Bft) S 177 0 min 0,000 mm 0,0 UV-I 0 W/m 10,8 C 11,3 C 7,9 km/h (2 Bft) 0,00 %
08.10.2015 03:40 11,3 C 97 % 1016,8 hPa 0,6 l/m 0,7 km/h (0 Bft) W-SW 251 0 min 0,000 mm 0,0 UV-I 0 W/m 10,8 C 11,3 C 4,0 km/h (1 Bft) 0,00 %
08.10.2015 03:45 11,3 C 97 % 1017,0 hPa 0,6 l/m 8,3 km/h (2 Bft) W-SW 255 0 min 0,000 mm 0,0 UV-I 0 W/m 10,8 C 10,0 C 11,9 km/h (2 Bft) 0,00 %
08.10.2015 03:50 11,3 C 97 % 1016,9 hPa 0,3 l/m 2,2 km/h (1 Bft) S-SW 209 0 min 0,000 mm 0,0 UV-I 0 W/m 10,8 C 11,3 C 4,0 km/h (1 Bft) 0,00 %
08.10.2015 03:55 11,3 C 97 % 1016,9 hPa 0,3 l/m 1,8 km/h (1 Bft) W-SW 254 0 min 0,000 mm 0,0 UV-I 0 W/m 10,8 C 11,3 C 4,0 km/h (1 Bft) 0,00 %
08.10.2015 04:00 11,3 C 97 % 1016,8 hPa 0,3 l/m 4,0 km/h (1 Bft) N-NW 329 0 min 0,000 mm 0,0 UV-I 0 W/m 10,8 C 11,3 C 7,9 km/h (2 Bft) 0,00 %
08.10.2015 04:05 11,3 C 97 % 1016,8 hPa 0,3 l/m 1,4 km/h (1 Bft) N-NO 32 0 min 0,000 mm 0,0 UV-I 0 W/m 10,8 C 11,3 C 4,0 km/h (1 Bft) 0,00 %
08.10.2015 04:10 11,3 C 97 % 1016,8 hPa 0,0 l/m 0,0 km/h (0 Bft) W-NW 296 0 min 0,000 mm 0,0 UV-I 0 W/m 10,8 C 11,3 C 0,0 km/h (0 Bft) 0,00 %
08.10.2015 04:15 11,3 C 97 % 1016,9 hPa 0,3 l/m 3,2 km/h (1 Bft) SW 224 0 min 0,000 mm 0,0 UV-I 0 W/m 10,8 C 11,3 C 7,9 km/h (2 Bft) 0,00 %
08.10.2015 04:20 11,3 C 97 % 1017,0 hPa 0,0 l/m 0,4 km/h (0 Bft) N-NW 329 0 min 0,000 mm 0,0 UV-I 0 W/m 10,8 C 11,3 C 4,0 km/h (1 Bft) 0,00 %
08.10.2015 04:25 11,2 C 97 % 1017,0 hPa 0,0 l/m 2,2 km/h (1 Bft) W-SW 249 0 min 0,000 mm 0,0 UV-I 0 W/m 10,7 C 11,2 C 4,0 km/h (1 Bft) 0,00 %
08.10.2015 04:30 11,2 C 97 % 1016,9 hPa 0,3 l/m 1,4 km/h (1 Bft) SO 125 0 min 0,000 mm 0,0 UV-I 0 W/m 10,7 C 11,2 C 4,0 km/h (1 Bft) 0,00 %
08.10.2015 04:35 11,2 C 97 % 1016,9 hPa 0,0 l/m 0,4 km/h (0 Bft) SO 141 0 min 0,000 mm 0,0 UV-I 0 W/m 10,7 C 11,2 C 4,0 km/h (1 Bft) 0,00 %
08.10.2015 04:40 11,1 C 97 % 1017,0 hPa 0,0 l/m 6,5 km/h (2 Bft) S 177 0 min 0,000 mm 0,0 UV-I 0 W/m 10,6 C 11,1 C 7,9 km/h (2 Bft) 0,00 %
08.10.2015 04:45 11,1 C 97 % 1017,1 hPa 0,0 l/m 5,4 km/h (1 Bft) O-SO 103 0 min 0,000 mm 0,0 UV-I 0 W/m 10,6 C 11,1 C 7,9 km/h (2 Bft) 0,00 %
08.10.2015 04:50 11,1 C 97 % 1017,0 hPa 0,0 l/m 2,2 km/h (1 Bft) S 188 0 min 0,000 mm 0,0 UV-I 0 W/m 10,6 C 11,1 C 4,0 km/h (1 Bft) 0,00 %
08.10.2015 04:55 11,1 C 97 % 1017,2 hPa 0,0 l/m 4,7 km/h (1 Bft) SW 232 0 min 0,000 mm 0,0 UV-I 0 W/m 10,6 C 11,1 C 11,9 km/h (2 Bft) 0,00 %
08.10.2015 05:00 11,1 C 97 % 1017,2 hPa 0,0 l/m 4,0 km/h (1 Bft) SO 142 0 min 0,000 mm 0,0 UV-I 0 W/m 10,6 C 11,1 C 7,9 km/h (2 Bft) 0,00 %
08.10.2015 05:05 11,1 C 97 % 1017,0 hPa 0,0 l/m 5,4 km/h (1 Bft) S 178 0 min 0,000 mm 0,0 UV-I 0 W/m 10,6 C 11,1 C 7,9 km/h (2 Bft) 0,00 %
08.10.2015 05:10 11,1 C 97 % 1017,1 hPa 0,0 l/m 4,7 km/h (1 Bft) S-SW 198 0 min 0,000 mm 0,0 UV-I 0 W/m 10,6 C 11,1 C 7,9 km/h (2 Bft) 0,00 %
08.10.2015 05:15 11,0 C 97 % 1017,2 hPa 0,0 l/m 4,0 km/h (1 Bft) S 180 0 min 0,000 mm 0,0 UV-I 0 W/m 10,5 C 11,0 C 7,9 km/h (2 Bft) 0,00 %
08.10.2015 05:20 11,0 C 97 % 1017,0 hPa 0,0 l/m 7,2 km/h (2 Bft) S-SW 200 0 min 0,000 mm 0,0 UV-I 0 W/m 10,5 C 10,4 C 11,9 km/h (2 Bft) 0,00 %
08.10.2015 05:25 11,0 C 97 % 1017,2 hPa 0,0 l/m 2,2 km/h (1 Bft) SW 223 0 min 0,000 mm 0,0 UV-I 0 W/m 10,5 C 11,0 C 4,0 km/h (1 Bft) 0,00 %
08.10.2015 05:30 11,0 C 97 % 1017,3 hPa 0,0 l/m 5,8 km/h (2 Bft) SW 229 0 min 0,000 mm 0,0 UV-I 0 W/m 10,5 C 11,0 C 7,9 km/h (2 Bft) 0,00 %
08.10.2015 05:35 11,0 C 97 % 1017,2 hPa 0,0 l/m 9,0 km/h (2 Bft) SW 221 0 min 0,000 mm 0,0 UV-I 0 W/m 10,5 C 9,3 C 11,9 km/h (2 Bft) 0,00 %
08.10.2015 05:40 11,0 C 97 % 1017,3 hPa 0,3 l/m 1,4 km/h (1 Bft) W-NW 295 0 min 0,000 mm 0,0 UV-I 0 W/m 10,5 C 11,0 C 4,0 km/h (1 Bft) 0,00 %
08.10.2015 05:45 10,9 C 98 % 1017,1 hPa 0,0 l/m 1,8 km/h (1 Bft) S 187 0 min 0,000 mm 0,0 UV-I 0 W/m 10,6 C 10,9 C 4,0 km/h (1 Bft) 0,00 %
08.10.2015 05:50 10,9 C 98 % 1017,1 hPa 0,0 l/m 3,2 km/h (1 Bft) S 173 0 min 0,000 mm 0,0 UV-I 0 W/m 10,6 C 10,9 C 7,9 km/h (2 Bft) 0,00 %
08.10.2015 05:55 10,9 C 98 % 1017,3 hPa 0,0 l/m 4,3 km/h (1 Bft) NW 308 0 min 0,000 mm 0,0 UV-I 0 W/m 10,6 C 10,9 C 7,9 km/h (2 Bft) 0,00 %
08.10.2015 06:00 10,9 C 98 % 1017,2 hPa 0,0 l/m 1,8 km/h (1 Bft) W-SW 252 0 min 0,000 mm 0,0 UV-I 0 W/m 10,6 C 10,9 C 4,0 km/h (1 Bft) 0,00 %
08.10.2015 06:05 10,8 C 98 % 1017,1 hPa 0,0 l/m 4,0 km/h (1 Bft) W-SW 255 0 min 0,000 mm 0,0 UV-I 0 W/m 10,5 C 10,8 C 7,9 km/h (2 Bft) 0,00 %
08.10.2015 06:10 10,8 C 98 % 1017,3 hPa 0,0 l/m 4,3 km/h (1 Bft) S-SO 163 0 min 0,000 mm 0,0 UV-I 0 W/m 10,5 C 10,8 C 7,9 km/h (2 Bft) 0,00 %
08.10.2015 06:15 10,8 C 98 % 1017,2 hPa 0,0 l/m 4,3 km/h (1 Bft) SW 231 0 min 0,000 mm 0,0 UV-I 0 W/m 10,5 C 10,8 C 7,9 km/h (2 Bft) 0,00 %
08.10.2015 06:20 10,8 C 98 % 1017,1 hPa 0,0 l/m 3,2 km/h (1 Bft) NW 308 0 min 0,000 mm 0,0 UV-I 0 W/m 10,5 C 10,8 C 7,9 km/h (2 Bft) 0,00 %
08.10.2015 06:25 10,8 C 98 % 1017,0 hPa 0,3 l/m 4,7 km/h (1 Bft) W-SW 252 0 min 0,000 mm 0,0 UV-I 0 W/m 10,5 C 10,8 C 7,9 km/h (2 Bft) 0,00 %
08.10.2015 06:30 10,8 C 98 % 1016,9 hPa 0,0 l/m 4,7 km/h (1 Bft) S 190 0 min 0,000 mm 0,0 UV-I 0 W/m 10,5 C 10,8 C 7,9 km/h (2 Bft) 0,00 %
08.10.2015 06:35 10,7 C 98 % 1017,0 hPa 0,0 l/m 6,8 km/h (2 Bft) S-SW 204 0 min 0,000 mm 0,0 UV-I 0 W/m 10,4 C 10,4 C 11,9 km/h (2 Bft) 0,00 %
08.10.2015 06:40 10,7 C 98 % 1016,9 hPa 0,0 l/m 0,0 km/h (0 Bft) SW 222 0 min 0,000 mm 0,0 UV-I 0 W/m 10,4 C 10,7 C 0,0 km/h (0 Bft) 0,00 %
08.10.2015 06:45 10,7 C 98 % 1017,3 hPa 0,0 l/m 6,5 km/h (2 Bft) S 178 0 min 0,000 mm 0,0 UV-I 0 W/m 10,4 C 10,7 C 7,9 km/h (2 Bft) 0,00 %
08.10.2015 06:50 10,7 C 98 % 1017,2 hPa 0,0 l/m 6,8 km/h (2 Bft) S 176 0 min 0,000 mm 0,0 UV-I 0 W/m 10,4 C 10,4 C 11,9 km/h (2 Bft) 0,00 %
08.10.2015 06:55 10,7 C 98 % 1017,2 hPa 0,0 l/m 0,4 km/h (0 Bft) SW 214 0 min 0,000 mm 0,0 UV-I 0 W/m 10,4 C 10,7 C 4,0 km/h (1 Bft) 0,00 %
08.10.2015 07:00 10,7 C 98 % 1017,2 hPa 0,0 l/m 0,0 km/h (0 Bft) O 82 0 min 0,000 mm 0,0 UV-I 0 W/m 10,4 C 10,7 C 0,0 km/h (0 Bft) 0,00 %
08.10.2015 07:05 10,7 C 98 % 1017,2 hPa 0,0 l/m 1,4 km/h (1 Bft) S-SW 206 0 min 0,000 mm 0,0 UV-I 0 W/m 10,4 C 10,7 C 4,0 km/h (1 Bft) 0,00 %
08.10.2015 07:10 10,7 C 98 % 1017,3 hPa 0,0 l/m 4,3 km/h (1 Bft) S 178 0 min 0,000 mm 0,0 UV-I 0 W/m 10,4 C 10,7 C 7,9 km/h (2 Bft) 0,00 %
08.10.2015 07:15 10,7 C 98 % 1017,2 hPa 0,0 l/m 0,4 km/h (0 Bft) N 355 0 min 0,000 mm 0,0 UV-I 0 W/m 10,4 C 10,7 C 4,0 km/h (1 Bft) 0,00 %
08.10.2015 07:20 10,7 C 98 % 1017,4 hPa 0,0 l/m 0,7 km/h (0 Bft) W-SW 250 0 min 0,000 mm 0,0 UV-I 0 W/m 10,4 C 10,7 C 4,0 km/h (1 Bft) 0,00 %
08.10.2015 07:25 10,7 C 98 % 1017,4 hPa 0,0 l/m 5,4 km/h (1 Bft) S-SW 200 0 min 0,000 mm 0,0 UV-I 1 W/m 10,4 C 10,7 C 7,9 km/h (2 Bft) 0,00 %
08.10.2015 07:30 10,7 C 98 % 1017,4 hPa 0,0 l/m 5,4 km/h (1 Bft) W-SW 251 0 min 0,000 mm 0,0 UV-I 5 W/m 10,4 C 10,7 C 7,9 km/h (2 Bft) 0,00 %
08.10.2015 07:35 10,7 C 98 % 1017,5 hPa 0,0 l/m 1,4 km/h (1 Bft) W 264 0 min 0,000 mm 0,0 UV-I 9 W/m 10,4 C 10,7 C 4,0 km/h (1 Bft) 0,00 %
08.10.2015 07:40 10,7 C 98 % 1017,3 hPa 0,0 l/m 5,8 km/h (2 Bft) S-SW 200 0 min 0,000 mm 0,0 UV-I 12 W/m 10,4 C 10,7 C 7,9 km/h (2 Bft) 0,00 %
08.10.2015 07:45 10,7 C 98 % 1017,5 hPa 0,0 l/m 3,2 km/h (1 Bft) S-SW 198 0 min 0,000 mm 0,0 UV-I 16 W/m 10,4 C 10,7 C 7,9 km/h (2 Bft) 0,00 %
08.10.2015 07:50 10,7 C 98 % 1017,5 hPa 0,0 l/m 0,7 km/h (0 Bft) S-SW 195 0 min 0,000 mm 0,0 UV-I 19 W/m 10,4 C 10,7 C 4,0 km/h (1 Bft) 0,00 %
08.10.2015 07:55 10,7 C 98 % 1017,6 hPa 0,0 l/m 3,2 km/h (1 Bft) S 176 0 min 0,000 mm 0,0 UV-I 24 W/m 10,4 C 10,7 C 4,0 km/h (1 Bft) 0,00 %
08.10.2015 08:00 10,7 C 98 % 1017,7 hPa 0,0 l/m 5,4 km/h (1 Bft) S-SW 204 0 min 0,000 mm 0,0 UV-I 30 W/m 10,4 C 10,7 C 7,9 km/h (2 Bft) 0,00 %
08.10.2015 08:05 10,8 C 98 % 1017,8 hPa 0,0 l/m 1,8 km/h (1 Bft) NO 39 0 min 0,000 mm 0,0 UV-I 38 W/m 10,5 C 10,8 C 4,0 km/h (1 Bft) 0,00 %
08.10.2015 08:10 10,8 C 98 % 1017,9 hPa 0,0 l/m 4,7 km/h (1 Bft) S 188 0 min 0,000 mm 0,0 UV-I 42 W/m 10,5 C 10,8 C 7,9 km/h (2 Bft) 0,00 %
08.10.2015 08:15 10,8 C 98 % 1017,9 hPa 0,0 l/m 4,3 km/h (1 Bft) S-SW 203 0 min 0,000 mm 0,0 UV-I 44 W/m 10,5 C 10,8 C 7,9 km/h (2 Bft) 0,00 %
08.10.2015 08:20 10,8 C 98 % 1017,9 hPa 0,0 l/m 4,7 km/h (1 Bft) S 180 0 min 0,000 mm 0,0 UV-I 43 W/m 10,5 C 10,8 C 7,9 km/h (2 Bft) 0,00 %
08.10.2015 08:25 10,8 C 98 % 1018,0 hPa 0,0 l/m 1,4 km/h (1 Bft) W-SW 256 0 min 0,000 mm 0,0 UV-I 44 W/m 10,5 C 10,8 C 4,0 km/h (1 Bft) 0,00 %
08.10.2015 08:30 10,9 C 98 % 1017,9 hPa 0,0 l/m 4,0 km/h (1 Bft) S-SW 212 0 min 0,000 mm 0,0 UV-I 50 W/m 10,6 C 10,9 C 7,9 km/h (2 Bft) 0,00 %
08.10.2015 08:35 10,9 C 97 % 1018,0 hPa 0,0 l/m 4,0 km/h (1 Bft) NW 307 0 min 0,000 mm 0,0 UV-I 54 W/m 10,4 C 10,9 C 7,9 km/h (2 Bft) 0,00 %
08.10.2015 08:40 11,0 C 97 % 1018,1 hPa 0,0 l/m 2,9 km/h (1 Bft) S-SW 203 0 min 0,000 mm 0,0 UV-I 58 W/m 10,5 C 11,0 C 7,9 km/h (2 Bft) 0,00 %
08.10.2015 08:45 11,0 C 97 % 1018,2 hPa 0,0 l/m 1,4 km/h (1 Bft) SW 218 0 min 0,000 mm 0,0 UV-I 65 W/m 10,5 C 11,0 C 4,0 km/h (1 Bft) 0,00 %
08.10.2015 08:50 11,0 C 97 % 1018,1 hPa 0,0 l/m 2,2 km/h (1 Bft) W-SW 249 0 min 0,000 mm 0,0 UV-I 71 W/m 10,5 C 11,0 C 4,0 km/h (1 Bft) 0,00 %
08.10.2015 08:55 11,0 C 97 % 1018,2 hPa 0,0 l/m 2,9 km/h (1 Bft) S-SW 203 0 min 0,000 mm 0,0 UV-I 72 W/m 10,5 C 11,0 C 7,9 km/h (2 Bft) 0,00 %
08.10.2015 09:00 11,0 C 97 % 1018,4 hPa 0,0 l/m 2,2 km/h (1 Bft) W 269 0 min 0,000 mm 0,0 UV-I 71 W/m 10,5 C 11,0 C 4,0 km/h (1 Bft) 0,00 %
08.10.2015 09:05 11,1 C 97 % 1018,4 hPa 0,0 l/m 4,0 km/h (1 Bft) S 172 0 min 0,000 mm 0,0 UV-I 73 W/m 10,6 C 11,1 C 4,0 km/h (1 Bft) 0,00 %
08.10.2015 09:10 11,1 C 97 % 1018,4 hPa 0,0 l/m 5,4 km/h (1 Bft) S 178 0 min 0,000 mm 0,0 UV-I 74 W/m 10,6 C 11,1 C 7,9 km/h (2 Bft) 0,00 %
08.10.2015 09:15 11,1 C 97 % 1018,3 hPa 0,0 l/m 4,0 km/h (1 Bft) SW 229 0 min 0,000 mm 1,0 UV-I 89 W/m 10,6 C 11,1 C 7,9 km/h (2 Bft) 0,00 %
08.10.2015 09:20 11,1 C 97 % 1018,5 hPa 0,0 l/m 6,5 km/h (2 Bft) S-SW 203 0 min 0,000 mm 1,0 UV-I 91 W/m 10,6 C 11,1 C 7,9 km/h (2 Bft) 0,00 %
08.10.2015 09:25 11,1 C 97 % 1018,4 hPa 0,0 l/m 3,2 km/h (1 Bft) W-NW 286 0 min 0,000 mm 0,0 UV-I 85 W/m 10,6 C 11,1 C 4,0 km/h (1 Bft) 0,00 %
08.10.2015 09:30 11,2 C 97 % 1018,4 hPa 0,0 l/m 1,4 km/h (1 Bft) O-SO 120 0 min 0,000 mm 1,0 UV-I 94 W/m 10,7 C 11,2 C 4,0 km/h (1 Bft) 0,00 %
08.10.2015 09:35 11,2 C 97 % 1018,5 hPa 0,0 l/m 0,4 km/h (0 Bft) S 182 0 min 0,000 mm 1,0 UV-I 98 W/m 10,7 C 11,2 C 4,0 km/h (1 Bft) 0,00 %
08.10.2015 09:40 11,2 C 97 % 1018,7 hPa 0,0 l/m 1,4 km/h (1 Bft) S-SW 205 0 min 0,000 mm 0,0 UV-I 101 W/m 10,7 C 11,2 C 4,0 km/h (1 Bft) 0,00 %
08.10.2015 09:45 11,3 C 97 % 1018,6 hPa 0,0 l/m 0,4 km/h (0 Bft) W-SW 256 0 min 0,000 mm 0,0 UV-I 107 W/m 10,8 C 11,3 C 4,0 km/h (1 Bft) 0,00 %
08.10.2015 09:50 11,3 C 97 % 1018,7 hPa 0,0 l/m 0,0 km/h (0 Bft) W-SW 251 0 min 0,000 mm 1,0 UV-I 108 W/m 10,8 C 11,3 C 0,0 km/h (0 Bft) 0,00 %
08.10.2015 09:55 11,3 C 97 % 1018,7 hPa 0,0 l/m 3,2 km/h (1 Bft) S-SW 198 0 min 0,000 mm 0,0 UV-I 109 W/m 10,8 C 11,3 C 4,0 km/h (1 Bft) 0,00 %
08.10.2015 10:00 11,4 C 97 % 1018,8 hPa 0,0 l/m 7,9 km/h (2 Bft) S-SW 202 0 min 0,000 mm 0,0 UV-I 92 W/m 10,9 C 10,4 C 11,9 km/h (2 Bft) 0,00 %
08.10.2015 10:05 11,4 C 97 % 1018,9 hPa 0,0 l/m 1,4 km/h (1 Bft) S-SW 200 0 min 0,000 mm 0,0 UV-I 93 W/m 10,9 C 11,4 C 4,0 km/h (1 Bft) 0,00 %
08.10.2015 10:10 11,2 C 97 % 1018,7 hPa 0,0 l/m 1,8 km/h (1 Bft) S-SW 201 0 min 0,000 mm 0,0 UV-I 99 W/m 10,7 C 11,2 C 4,0 km/h (1 Bft) 0,00 %
08.10.2015 10:15 11,2 C 97 % 1018,9 hPa 0,0 l/m 1,8 km/h (1 Bft) S-SW 192 0 min 0,000 mm 0,0 UV-I 109 W/m 10,7 C 11,2 C 4,0 km/h (1 Bft) 0,00 %
08.10.2015 10:20 11,2 C 97 % 1018,9 hPa 0,0 l/m 0,0 km/h (0 Bft) W 277 0 min 0,000 mm 0,0 UV-I 114 W/m 10,7 C 11,2 C 0,0 km/h (0 Bft) 0,00 %
08.10.2015 10:25 11,3 C 97 % 1018,8 hPa 0,0 l/m 1,4 km/h (1 Bft) S-SO 150 0 min 0,000 mm 0,0 UV-I 114 W/m 10,8 C 11,3 C 4,0 km/h (1 Bft) 0,00 %
08.10.2015 10:30 11,3 C 97 % 1018,8 hPa 0,0 l/m 4,0 km/h (1 Bft) W-SW 251 0 min 0,000 mm 0,0 UV-I 110 W/m 10,8 C 11,3 C 7,9 km/h (2 Bft) 0,00 %
08.10.2015 10:35 11,3 C 97 % 1018,9 hPa 0,0 l/m 1,8 km/h (1 Bft) SW 227 0 min 0,000 mm 1,0 UV-I 131 W/m 10,8 C 11,3 C 4,0 km/h (1 Bft) 0,00 %
08.10.2015 10:40 11,3 C 97 % 1018,9 hPa 0,0 l/m 5,4 km/h (1 Bft) S 176 0 min 0,000 mm 1,0 UV-I 145 W/m 10,8 C 11,3 C 7,9 km/h (2 Bft) 0,00 %
08.10.2015 10:45 11,4 C 97 % 1018,9 hPa 0,0 l/m 3,2 km/h (1 Bft) S 173 0 min 0,000 mm 1,0 UV-I 151 W/m 10,9 C 11,4 C 4,0 km/h (1 Bft) 0,00 %
08.10.2015 10:50 11,5 C 97 % 1019,1 hPa 0,0 l/m 4,0 km/h (1 Bft) S 187 0 min 0,000 mm 1,0 UV-I 136 W/m 11,0 C 11,5 C 4,0 km/h (1 Bft) 0,00 %
08.10.2015 10:55 11,5 C 97 % 1019,1 hPa 0,0 l/m 5,4 km/h (1 Bft) SO 143 0 min 0,000 mm 1,0 UV-I 141 W/m 11,0 C 11,5 C 7,9 km/h (2 Bft) 0,00 %
08.10.2015 11:00 11,4 C 97 % 1019,0 hPa 0,0 l/m 4,7 km/h (1 Bft) S-SW 199 0 min 0,000 mm 1,0 UV-I 130 W/m 10,9 C 11,4 C 7,9 km/h (2 Bft) 0,00 %
08.10.2015 11:06 11,4 C 97 % 1019,1 hPa 0,0 l/m 4,0 km/h (1 Bft) W-SW 248 0 min 0,000 mm 1,0 UV-I 127 W/m 10,9 C 11,4 C 7,9 km/h (2 Bft) 0,00 %
08.10.2015 11:11 11,4 C 97 % 1018,9 hPa 0,0 l/m 9,7 km/h (2 Bft) W-SW 256 0 min 0,000 mm 1,0 UV-I 138 W/m 10,9 C 9,3 C 11,9 km/h (2 Bft) 0,00 %
08.10.2015 11:16 11,3 C 97 % 1019,0 hPa 0,0 l/m 4,3 km/h (1 Bft) S-SW 193 0 min 0,000 mm 1,0 UV-I 136 W/m 10,8 C 11,3 C 7,9 km/h (2 Bft) 0,00 %
08.10.2015 11:21 11,2 C 97 % 1019,0 hPa 0,0 l/m 3,2 km/h (1 Bft) S 178 0 min 0,000 mm 1,0 UV-I 130 W/m 10,7 C 11,2 C 7,9 km/h (2 Bft) 0,00 %
08.10.2015 11:26 11,2 C 97 % 1019,1 hPa 0,0 l/m 2,9 km/h (1 Bft) W-SW 251 0 min 0,000 mm 1,0 UV-I 146 W/m 10,7 C 11,2 C 4,0 km/h (1 Bft) 0,00 %
08.10.2015 11:31 11,2 C 97 % 1019,1 hPa 0,0 l/m 6,8 km/h (2 Bft) S-SW 192 0 min 0,000 mm 1,0 UV-I 144 W/m 10,7 C 10,9 C 7,9 km/h (2 Bft) 0,00 %
08.10.2015 11:36 11,2 C 97 % 1019,2 hPa 0,0 l/m 0,4 km/h (0 Bft) O-NO 78 0 min 0,000 mm 1,0 UV-I 157 W/m 10,7 C 11,2 C 4,0 km/h (1 Bft) 0,00 %
08.10.2015 11:41 11,2 C 97 % 1019,1 hPa 0,0 l/m 0,4 km/h (0 Bft) SO 145 0 min 0,000 mm 1,0 UV-I 176 W/m 10,7 C 11,2 C 4,0 km/h (1 Bft) 0,00 %
08.10.2015 11:46 11,4 C 97 % 1019,0 hPa 0,0 l/m 5,4 km/h (1 Bft) S 190 0 min 0,000 mm 1,0 UV-I 178 W/m 10,9 C 11,4 C 7,9 km/h (2 Bft) 0,00 %
08.10.2015 11:51 11,4 C 97 % 1019,2 hPa 0,0 l/m 0,0 km/h (0 Bft) O-NO 71 0 min 0,000 mm 1,0 UV-I 182 W/m 10,9 C 11,4 C 0,0 km/h (0 Bft) 0,00 %
08.10.2015 11:56 11,5 C 97 % 1019,1 hPa 0,0 l/m 4,3 km/h (1 Bft) S-SW 208 0 min 0,000 mm 1,0 UV-I 199 W/m 11,0 C 11,5 C 7,9 km/h (2 Bft) 0,00 %
08.10.2015 12:01 11,6 C 97 % 1019,1 hPa 0,0 l/m 0,7 km/h (0 Bft) S-SW 203 0 min 0,000 mm 1,0 UV-I 215 W/m 11,1 C 11,6 C 4,0 km/h (1 Bft) 0,00 %
08.10.2015 12:06 11,7 C 97 % 1019,1 hPa 0,0 l/m 3,2 km/h (1 Bft) S 181 0 min 0,000 mm 1,0 UV-I 242 W/m 11,2 C 11,7 C 4,0 km/h (1 Bft) 0,00 %
08.10.2015 12:11 11,8 C 97 % 1018,9 hPa 0,0 l/m 10,4 km/h (2 Bft) S 191 0 min 0,000 mm 1,0 UV-I 244 W/m 11,3 C 9,4 C 15,8 km/h (3 Bft) 0,00 %
08.10.2015 12:16 11,8 C 97 % 1019,0 hPa 0,0 l/m 1,4 km/h (1 Bft) W-SW 255 0 min 0,000 mm 1,0 UV-I 278 W/m 11,3 C 11,8 C 4,0 km/h (1 Bft) 0,00 %
08.10.2015 12:21 11,9 C 97 % 1019,2 hPa 0,0 l/m 5,4 km/h (1 Bft) NO 47 0 min 0,000 mm 1,0 UV-I 268 W/m 11,4 C 11,9 C 7,9 km/h (2 Bft) 0,00 %
08.10.2015 12:26 11,8 C 97 % 1019,2 hPa 0,0 l/m 0,4 km/h (0 Bft) S 183 0 min 0,000 mm 1,0 UV-I 267 W/m 11,3 C 11,8 C 4,0 km/h (1 Bft) 0,00 %
08.10.2015 12:31 11,7 C 97 % 1019,0 hPa 0,0 l/m 16,6 km/h (3 Bft) SW 233 0 min 0,000 mm 1,0 UV-I 290 W/m 11,2 C 6,6 C 19,8 km/h (3 Bft) 0,00 %
08.10.2015 12:36 11,7 C 97 % 1019,0 hPa 0,0 l/m 7,2 km/h (2 Bft) W-SW 255 0 min 0,000 mm 1,0 UV-I 308 W/m 11,2 C 11,2 C 11,9 km/h (2 Bft) 0,00 %
08.10.2015 12:41 11,7 C 97 % 1019,1 hPa 0,0 l/m 4,7 km/h (1 Bft) SW 221 0 min 0,000 mm 1,0 UV-I 313 W/m 11,2 C 11,7 C 7,9 km/h (2 Bft) 0,00 %
08.10.2015 12:46 11,8 C 97 % 1019,2 hPa 0,0 l/m 2,9 km/h (1 Bft) N-NW 331 0 min 0,000 mm 1,0 UV-I 324 W/m 11,3 C 11,8 C 7,9 km/h (2 Bft) 0,00 %
08.10.2015 12:51 11,9 C 96 % 1019,1 hPa 0,0 l/m 5,8 km/h (2 Bft) S-SW 211 5 min 0,000 mm 1,0 UV-I 336 W/m 11,3 C 11,9 C 11,9 km/h (2 Bft) 0,00 %
08.10.2015 12:56 12,0 C 95 % 1018,9 hPa 0,0 l/m 4,0 km/h (1 Bft) W-SW 256 5 min 0,000 mm 1,0 UV-I 328 W/m 11,2 C 12,0 C 7,9 km/h (2 Bft) 0,00 %
08.10.2015 13:01 12,2 C 95 % 1019,1 hPa 0,0 l/m 12,2 km/h (2 Bft) W-SW 253 0 min 0,000 mm 1,0 UV-I 228 W/m 11,4 C 9,0 C 15,8 km/h (3 Bft) 0,00 %
08.10.2015 13:06 12,3 C 94 % 1019,2 hPa 0,0 l/m 6,5 km/h (2 Bft) S-SW 200 0 min 0,000 mm 1,0 UV-I 196 W/m 11,4 C 12,3 C 11,9 km/h (2 Bft) 0,00 %
08.10.2015 13:11 12,3 C 94 % 1019,3 hPa 0,0 l/m 6,5 km/h (2 Bft) S-SW 202 0 min 0,000 mm 1,0 UV-I 168 W/m 11,4 C 12,3 C 7,9 km/h (2 Bft) 0,00 %
08.10.2015 13:16 12,3 C 94 % 1019,3 hPa 0,0 l/m 2,9 km/h (1 Bft) W-SW 255 0 min 0,000 mm 1,0 UV-I 171 W/m 11,4 C 12,3 C 4,0 km/h (1 Bft) 0,00 %
08.10.2015 13:21 12,3 C 93 % 1019,3 hPa 0,0 l/m 0,0 km/h (0 Bft) S 181 0 min 0,000 mm 1,0 UV-I 197 W/m 11,2 C 12,3 C 0,0 km/h (0 Bft) 0,00 %
08.10.2015 13:26 12,4 C 93 % 1019,3 hPa 0,0 l/m 1,4 km/h (1 Bft) W-SW 256 0 min 0,000 mm 1,0 UV-I 192 W/m 11,3 C 12,4 C 4,0 km/h (1 Bft) 0,00 %
08.10.2015 13:31 12,5 C 92 % 1019,3 hPa 0,0 l/m 0,4 km/h (0 Bft) NW 307 0 min 0,000 mm 1,0 UV-I 179 W/m 11,2 C 12,5 C 4,0 km/h (1 Bft) 0,00 %
08.10.2015 13:36 12,6 C 90 % 1019,4 hPa 0,0 l/m 8,3 km/h (2 Bft) SW 228 0 min 0,000 mm 1,0 UV-I 164 W/m 11,0 C 11,4 C 11,9 km/h (2 Bft) 0,00 %
08.10.2015 13:41 12,7 C 89 % 1019,2 hPa 0,0 l/m 0,7 km/h (0 Bft) S 191 0 min 0,000 mm 1,0 UV-I 111 W/m 10,9 C 12,7 C 4,0 km/h (1 Bft) 0,00 %
08.10.2015 13:46 12,7 C 88 % 1019,3 hPa 0,0 l/m 0,7 km/h (0 Bft) S 175 0 min 0,000 mm 1,0 UV-I 152 W/m 10,8 C 12,7 C 4,0 km/h (1 Bft) 0,00 %
08.10.2015 13:51 12,7 C 88 % 1019,3 hPa 0,0 l/m 0,0 km/h (0 Bft) O-SO 119 0 min 0,000 mm 1,0 UV-I 166 W/m 10,8 C 12,7 C 0,0 km/h (0 Bft) 0,00 %
08.10.2015 13:56 12,7 C 88 % 1019,4 hPa 0,0 l/m 0,7 km/h (0 Bft) S-SW 201 0 min 0,000 mm 1,0 UV-I 159 W/m 10,8 C 12,7 C 4,0 km/h (1 Bft) 0,00 %
08.10.2015 14:01 12,7 C 86 % 1019,2 hPa 0,0 l/m 0,7 km/h (0 Bft) S 175 0 min 0,000 mm 1,0 UV-I 136 W/m 10,4 C 12,7 C 4,0 km/h (1 Bft) 0,00 %
08.10.2015 14:06 12,8 C 86 % 1019,2 hPa 0,0 l/m 0,0 km/h (0 Bft) N-NO 20 0 min 0,000 mm 1,0 UV-I 167 W/m 10,5 C 12,8 C 0,0 km/h (0 Bft) 0,00 %
08.10.2015 14:11 12,8 C 86 % 1019,1 hPa 0,0 l/m 4,3 km/h (1 Bft) W-SW 255 0 min 0,000 mm 1,0 UV-I 159 W/m 10,5 C 12,8 C 7,9 km/h (2 Bft) 0,00 %
08.10.2015 14:16 12,8 C 85 % 1019,2 hPa 0,0 l/m 6,8 km/h (2 Bft) S-SW 204 0 min 0,000 mm 1,0 UV-I 157 W/m 10,3 C 12,6 C 7,9 km/h (2 Bft) 0,00 %
08.10.2015 14:21 12,8 C 84 % 1019,3 hPa 0,0 l/m 6,5 km/h (2 Bft) SW 230 0 min 0,000 mm 1,0 UV-I 153 W/m 10,2 C 12,8 C 7,9 km/h (2 Bft) 0,00 %
08.10.2015 14:26 12,8 C 84 % 1019,3 hPa 0,0 l/m 0,4 km/h (0 Bft) SW 233 0 min 0,000 mm 1,0 UV-I 134 W/m 10,2 C 12,8 C 4,0 km/h (1 Bft) 0,00 %
08.10.2015 14:31 12,8 C 84 % 1019,3 hPa 0,0 l/m 0,0 km/h (0 Bft) O 86 0 min 0,000 mm 1,0 UV-I 122 W/m 10,2 C 12,8 C 0,0 km/h (0 Bft) 0,00 %
08.10.2015 14:36 12,8 C 83 % 1019,4 hPa 0,0 l/m 1,8 km/h (1 Bft) W-SW 250 0 min 0,000 mm 1,0 UV-I 103 W/m 10,0 C 12,8 C 4,0 km/h (1 Bft) 0,00 %
08.10.2015 14:41 12,9 C 83 % 1019,4 hPa 0,0 l/m 2,9 km/h (1 Bft) S 177 0 min 0,000 mm 1,0 UV-I 119 W/m 10,1 C 12,9 C 4,0 km/h (1 Bft) 0,00 %
08.10.2015 14:46 12,9 C 82 % 1019,3 hPa 0,0 l/m 0,0 km/h (0 Bft) SO 146 0 min 0,000 mm 1,0 UV-I 109 W/m 9,9 C 12,9 C 0,0 km/h (0 Bft) 0,00 %
08.10.2015 14:51 12,9 C 82 % 1019,3 hPa 0,0 l/m 0,0 km/h (0 Bft) N 357 0 min 0,000 mm 1,0 UV-I 126 W/m 9,9 C 12,9 C 0,0 km/h (0 Bft) 0,00 %
08.10.2015 14:56 12,9 C 81 % 1019,3 hPa 0,0 l/m 0,0 km/h (0 Bft) NO 36 0 min 0,000 mm 1,0 UV-I 124 W/m 9,7 C 12,9 C 0,0 km/h (0 Bft) 0,00 %
08.10.2015 15:01 12,9 C 81 % 1019,2 hPa 0,0 l/m 4,7 km/h (1 Bft) S 183 0 min 0,000 mm 1,0 UV-I 135 W/m 9,7 C 12,9 C 7,9 km/h (2 Bft) 0,00 %
08.10.2015 15:06 13,0 C 81 % 1019,3 hPa 0,0 l/m 0,0 km/h (0 Bft) N-NW 328 0 min 0,000 mm 1,0 UV-I 122 W/m 9,8 C 13,0 C 0,0 km/h (0 Bft) 0,00 %
08.10.2015 15:11 13,1 C 81 % 1019,3 hPa 0,0 l/m 0,7 km/h (0 Bft) S 177 0 min 0,000 mm 1,0 UV-I 124 W/m 9,9 C 13,1 C 4,0 km/h (1 Bft) 0,00 %
08.10.2015 15:16 13,1 C 80 % 1019,3 hPa 0,0 l/m 0,0 km/h (0 Bft) N-NW 344 0 min 0,000 mm 1,0 UV-I 123 W/m 9,7 C 13,1 C 0,0 km/h (0 Bft) 0,00 %
08.10.2015 15:21 13,1 C 80 % 1019,4 hPa 0,0 l/m 0,4 km/h (0 Bft) W-SW 255 0 min 0,000 mm 1,0 UV-I 103 W/m 9,7 C 13,1 C 4,0 km/h (1 Bft) 0,00 %
08.10.2015 15:26 13,1 C 80 % 1019,3 hPa 0,0 l/m 1,4 km/h (1 Bft) W-SW 251 0 min 0,000 mm 1,0 UV-I 156 W/m 9,7 C 13,1 C 4,0 km/h (1 Bft) 0,00 %
08.10.2015 15:31 13,2 C 80 % 1019,2 hPa 0,0 l/m 2,9 km/h (1 Bft) W-SW 248 0 min 0,000 mm 1,0 UV-I 169 W/m 9,8 C 13,2 C 4,0 km/h (1 Bft) 0,00 %
08.10.2015 15:36 13,3 C 79 % 1019,0 hPa 0,0 l/m 0,4 km/h (0 Bft) NO 55 0 min 0,000 mm 1,0 UV-I 199 W/m 9,7 C 13,3 C 4,0 km/h (1 Bft) 0,00 %
08.10.2015 15:41 13,4 C 79 % 1019,0 hPa 0,0 l/m 6,5 km/h (2 Bft) S-SW 204 0 min 0,000 mm 1,0 UV-I 217 W/m 9,8 C 13,4 C 7,9 km/h (2 Bft) 0,00 %
08.10.2015 15:46 13,5 C 79 % 1019,0 hPa 0,0 l/m 0,0 km/h (0 Bft) SO 136 0 min 0,000 mm 1,0 UV-I 211 W/m 9,9 C 13,5 C 0,0 km/h (0 Bft) 0,00 %
08.10.2015 15:51 13,8 C 77 % 1019,1 hPa 0,0 l/m 0,4 km/h (0 Bft) O-NO 71 0 min 0,000 mm 1,0 UV-I 199 W/m 9,8 C 13,8 C 4,0 km/h (1 Bft) 0,00 %
08.10.2015 15:56 13,9 C 77 % 1019,1 hPa 0,0 l/m 0,0 km/h (0 Bft) SO 135 0 min 0,000 mm 1,0 UV-I 188 W/m 9,9 C 13,9 C 0,0 km/h (0 Bft) 0,00 %
08.10.2015 16:01 14,0 C 77 % 1019,0 hPa 0,0 l/m 4,7 km/h (1 Bft) S-SW 192 0 min 0,000 mm 1,0 UV-I 170 W/m 10,0 C 14,0 C 7,9 km/h (2 Bft) 0,00 %
08.10.2015 16:06 14,1 C 76 % 1019,0 hPa 0,0 l/m 0,7 km/h (0 Bft) S-SW 197 0 min 0,000 mm 1,0 UV-I 157 W/m 9,9 C 14,1 C 4,0 km/h (1 Bft) 0,00 %
08.10.2015 16:11 14,1 C 75 % 1019,1 hPa 0,0 l/m 1,8 km/h (1 Bft) S-SW 213 0 min 0,000 mm 1,0 UV-I 134 W/m 9,7 C 14,1 C 7,9 km/h (2 Bft) 0,00 %
08.10.2015 16:16 14,1 C 75 % 1019,1 hPa 0,0 l/m 4,7 km/h (1 Bft) S-SW 192 0 min 0,000 mm 1,0 UV-I 118 W/m 9,7 C 14,1 C 7,9 km/h (2 Bft) 0,00 %
08.10.2015 16:21 13,9 C 76 % 1019,1 hPa 0,0 l/m 4,0 km/h (1 Bft) W-SW 254 0 min 0,000 mm 1,0 UV-I 113 W/m 9,7 C 13,9 C 7,9 km/h (2 Bft) 0,00 %
08.10.2015 16:26 13,7 C 76 % 1019,0 hPa 0,0 l/m 1,8 km/h (1 Bft) S 172 0 min 0,000 mm 1,0 UV-I 125 W/m 9,5 C 13,7 C 4,0 km/h (1 Bft) 0,00 %
08.10.2015 16:31 13,6 C 76 % 1019,1 hPa 0,0 l/m 4,7 km/h (1 Bft) SW 226 0 min 0,000 mm 1,0 UV-I 150 W/m 9,4 C 13,6 C 7,9 km/h (2 Bft) 0,00 %
08.10.2015 16:36 13,6 C 76 % 1019,0 hPa 0,0 l/m 3,2 km/h (1 Bft) S 175 0 min 0,000 mm 1,0 UV-I 148 W/m 9,4 C 13,6 C 7,9 km/h (2 Bft) 0,00 %
08.10.2015 16:41 13,7 C 77 % 1019,0 hPa 0,0 l/m 0,4 km/h (0 Bft) S-SW 201 0 min 0,000 mm 1,0 UV-I 140 W/m 9,7 C 13,7 C 4,0 km/h (1 Bft) 0,00 %
08.10.2015 16:46 13,8 C 78 % 1018,9 hPa 0,0 l/m 0,0 km/h (0 Bft) O 81 5 min 0,000 mm 1,0 UV-I 153 W/m 10,0 C 13,8 C 0,0 km/h (0 Bft) 0,00 %
08.10.2015 16:51 13,8 C 77 % 1019,1 hPa 0,0 l/m 1,8 km/h (1 Bft) S 179 5 min 0,000 mm 1,0 UV-I 142 W/m 9,8 C 13,8 C 4,0 km/h (1 Bft) 0,00 %
08.10.2015 16:56 13,9 C 78 % 1019,0 hPa 0,0 l/m 0,4 km/h (0 Bft) W-SW 251 5 min 0,000 mm 1,0 UV-I 145 W/m 10,1 C 13,9 C 4,0 km/h (1 Bft) 0,00 %
08.10.2015 17:01 13,9 C 78 % 1019,1 hPa 0,0 l/m 2,2 km/h (1 Bft) NW 316 5 min 0,000 mm 1,0 UV-I 139 W/m 10,1 C 13,9 C 4,0 km/h (1 Bft) 0,00 %
08.10.2015 17:06 13,8 C 77 % 1019,1 hPa 0,0 l/m 1,8 km/h (1 Bft) O-SO 109 5 min 0,000 mm 1,0 UV-I 124 W/m 9,8 C 13,8 C 4,0 km/h (1 Bft) 0,00 %
08.10.2015 17:11 13,8 C 77 % 1019,2 hPa 0,0 l/m 3,2 km/h (1 Bft) S-SW 198 0 min 0,000 mm 0,0 UV-I 104 W/m 9,8 C 13,8 C 4,0 km/h (1 Bft) 0,00 %
08.10.2015 17:16 13,7 C 78 % 1019,2 hPa 0,0 l/m 0,7 km/h (0 Bft) S 185 0 min 0,000 mm 0,0 UV-I 100 W/m 9,9 C 13,7 C 4,0 km/h (1 Bft) 0,00 %
08.10.2015 17:21 13,7 C 79 % 1019,2 hPa 0,0 l/m 0,0 km/h (0 Bft) SO 127 0 min 0,000 mm 0,0 UV-I 97 W/m 10,1 C 13,7 C 0,0 km/h (0 Bft) 0,00 %
08.10.2015 17:26 13,7 C 79 % 1019,3 hPa 0,0 l/m 0,0 km/h (0 Bft) S 187 0 min 0,000 mm 0,0 UV-I 88 W/m 10,1 C 13,7 C 0,0 km/h (0 Bft) 0,00 %
08.10.2015 17:31 13,6 C 78 % 1019,3 hPa 0,0 l/m 0,0 km/h (0 Bft) O-NO 67 0 min 0,000 mm 0,0 UV-I 73 W/m 9,8 C 13,6 C 0,0 km/h (0 Bft) 0,00 %
08.10.2015 17:36 13,5 C 79 % 1019,4 hPa 0,0 l/m 0,7 km/h (0 Bft) W-NW 284 0 min 0,000 mm 0,0 UV-I 67 W/m 9,9 C 13,5 C 4,0 km/h (1 Bft) 0,00 %
08.10.2015 17:41 13,4 C 78 % 1019,4 hPa 0,0 l/m 0,0 km/h (0 Bft) O-SO 114 0 min 0,000 mm 0,0 UV-I 64 W/m 9,6 C 13,4 C 0,0 km/h (0 Bft) 0,00 %
08.10.2015 17:46 13,3 C 78 % 1019,3 hPa 0,0 l/m 0,0 km/h (0 Bft) SO 139 0 min 0,000 mm 0,0 UV-I 58 W/m 9,5 C 13,3 C 0,0 km/h (0 Bft) 0,00 %
08.10.2015 17:51 13,3 C 78 % 1019,1 hPa 0,0 l/m 0,0 km/h (0 Bft) S-SO 162 0 min 0,000 mm 0,0 UV-I 39 W/m 9,5 C 13,3 C 0,0 km/h (0 Bft) 0,00 %
08.10.2015 17:56 13,2 C 78 % 1019,5 hPa 0,0 l/m 0,0 km/h (0 Bft) O-NO 66 0 min 0,000 mm 0,0 UV-I 23 W/m 9,4 C 13,2 C 0,0 km/h (0 Bft) 0,00 %
08.10.2015 18:01 13,1 C 78 % 1019,4 hPa 0,0 l/m 0,7 km/h (0 Bft) S 187 0 min 0,000 mm 0,0 UV-I 20 W/m 9,4 C 13,1 C 4,0 km/h (1 Bft) 0,00 %
08.10.2015 18:06 13,0 C 78 % 1019,6 hPa 0,0 l/m 0,0 km/h (0 Bft) SO 139 0 min 0,000 mm 0,0 UV-I 12 W/m 9,3 C 13,0 C 0,0 km/h (0 Bft) 0,00 %
08.10.2015 18:11 12,9 C 80 % 1019,6 hPa 0,0 l/m 0,0 km/h (0 Bft) O-SO 103 0 min 0,000 mm 0,0 UV-I 5 W/m 9,5 C 12,9 C 0,0 km/h (0 Bft) 0,00 %
08.10.2015 18:16 12,8 C 80 % 1019,6 hPa 0,0 l/m 0,0 km/h (0 Bft) O 88 0 min 0,000 mm 0,0 UV-I 1 W/m 9,4 C 12,8 C 0,0 km/h (0 Bft) 0,00 %
08.10.2015 18:21 12,7 C 81 % 1019,7 hPa 0,0 l/m 0,0 km/h (0 Bft) SO 132 0 min 0,000 mm 0,0 UV-I 0 W/m 9,5 C 12,7 C 0,0 km/h (0 Bft) 0,00 %
08.10.2015 18:26 12,6 C 80 % 1019,5 hPa 0,0 l/m 0,0 km/h (0 Bft) O 97 0 min 0,000 mm 0,0 UV-I 0 W/m 9,2 C 12,6 C 0,0 km/h (0 Bft) 0,00 %
08.10.2015 18:31 12,5 C 80 % 1019,5 hPa 0,0 l/m 0,0 km/h (0 Bft) O-NO 66 0 min 0,000 mm 0,0 UV-I 0 W/m 9,1 C 12,5 C 0,0 km/h (0 Bft) 0,00 %
08.10.2015 18:36 12,4 C 81 % 1019,6 hPa 0,0 l/m 0,0 km/h (0 Bft) SO 141 0 min 0,000 mm 0,0 UV-I 0 W/m 9,2 C 12,4 C 0,0 km/h (0 Bft) 0,00 %
08.10.2015 18:41 12,4 C 81 % 1019,7 hPa 0,0 l/m 0,0 km/h (0 Bft) O 97 0 min 0,000 mm 0,0 UV-I 0 W/m 9,2 C 12,4 C 0,0 km/h (0 Bft) 0,00 %
08.10.2015 18:46 12,3 C 81 % 1019,8 hPa 0,0 l/m 1,8 km/h (1 Bft) W-SW 256 0 min 0,000 mm 0,0 UV-I 0 W/m 9,1 C 12,3 C 4,0 km/h (1 Bft) 0,00 %
08.10.2015 18:51 12,2 C 81 % 1019,8 hPa 0,0 l/m 2,2 km/h (1 Bft) S-SW 201 0 min 0,000 mm 0,0 UV-I 0 W/m 9,0 C 12,2 C 4,0 km/h (1 Bft) 0,00 %
08.10.2015 18:56 12,2 C 81 % 1019,9 hPa 0,0 l/m 0,0 km/h (0 Bft) W-SW 251 0 min 0,000 mm 0,0 UV-I 0 W/m 9,0 C 12,2 C 0,0 km/h (0 Bft) 0,00 %
08.10.2015 19:01 12,2 C 82 % 1019,9 hPa 0,0 l/m 0,0 km/h (0 Bft) S 176 0 min 0,000 mm 0,0 UV-I 0 W/m 9,2 C 12,2 C 0,0 km/h (0 Bft) 0,00 %
08.10.2015 19:06 12,1 C 82 % 1019,9 hPa 0,0 l/m 0,4 km/h (0 Bft) W-NW 286 0 min 0,000 mm 0,0 UV-I 0 W/m 9,1 C 12,1 C 4,0 km/h (1 Bft) 0,00 %
08.10.2015 19:11 12,1 C 82 % 1020,0 hPa 0,0 l/m 0,0 km/h (0 Bft) S 187 0 min 0,000 mm 0,0 UV-I 0 W/m 9,1 C 12,1 C 0,0 km/h (0 Bft) 0,00 %
08.10.2015 19:16 12,1 C 83 % 1019,9 hPa 0,0 l/m 0,0 km/h (0 Bft) W-SW 251 0 min 0,000 mm 0,0 UV-I 0 W/m 9,3 C 12,1 C 0,0 km/h (0 Bft) 0,00 %
08.10.2015 19:21 12,0 C 83 % 1019,9 hPa 0,0 l/m 0,0 km/h (0 Bft) O-NO 66 0 min 0,000 mm 0,0 UV-I 0 W/m 9,2 C 12,0 C 0,0 km/h (0 Bft) 0,00 %
08.10.2015 19:26 12,0 C 83 % 1019,9 hPa 0,0 l/m 0,0 km/h (0 Bft) S-SW 196 0 min 0,000 mm 0,0 UV-I 0 W/m 9,2 C 12,0 C 0,0 km/h (0 Bft) 0,00 %
08.10.2015 19:31 11,9 C 83 % 1020,0 hPa 0,0 l/m 0,0 km/h (0 Bft) O-SO 115 0 min 0,000 mm 0,0 UV-I 0 W/m 9,1 C 11,9 C 0,0 km/h (0 Bft) 0,00 %
08.10.2015 19:36 11,9 C 83 % 1020,0 hPa 0,0 l/m 0,0 km/h (0 Bft) O-NO 76 0 min 0,000 mm 0,0 UV-I 0 W/m 9,1 C 11,9 C 0,0 km/h (0 Bft) 0,00 %
08.10.2015 19:41 11,9 C 83 % 1020,3 hPa 0,0 l/m 0,0 km/h (0 Bft) S 176 0 min 0,000 mm 0,0 UV-I 0 W/m 9,1 C 11,9 C 0,0 km/h (0 Bft) 0,00 %
08.10.2015 19:46 11,8 C 84 % 1020,1 hPa 0,0 l/m 0,0 km/h (0 Bft) NO 53 0 min 0,000 mm 0,0 UV-I 0 W/m 9,2 C 11,8 C 0,0 km/h (0 Bft) 0,00 %
08.10.2015 19:51 11,7 C 84 % 1020,1 hPa 0,0 l/m 0,0 km/h (0 Bft) NO 50 0 min 0,000 mm 0,0 UV-I 0 W/m 9,1 C 11,7 C 0,0 km/h (0 Bft) 0,00 %
08.10.2015 19:56 11,7 C 86 % 1020,2 hPa 0,0 l/m 0,0 km/h (0 Bft) NO 54 0 min 0,000 mm 0,0 UV-I 0 W/m 9,4 C 11,7 C 0,0 km/h (0 Bft) 0,00 %
08.10.2015 20:01 11,6 C 87 % 1020,3 hPa 0,0 l/m 0,0 km/h (0 Bft) NO 56 0 min 0,000 mm 0,0 UV-I 0 W/m 9,5 C 11,6 C 0,0 km/h (0 Bft) 0,00 %
08.10.2015 20:06 11,6 C 87 % 1020,3 hPa 0,0 l/m 0,0 km/h (0 Bft) NO 46 0 min 0,000 mm 0,0 UV-I 0 W/m 9,5 C 11,6 C 0,0 km/h (0 Bft) 0,00 %
08.10.2015 20:11 11,5 C 88 % 1020,1 hPa 0,0 l/m 0,0 km/h (0 Bft) NO 54 0 min 0,000 mm 0,0 UV-I 0 W/m 9,6 C 11,5 C 0,0 km/h (0 Bft) 0,00 %
08.10.2015 20:16 11,5 C 88 % 1019,9 hPa 0,0 l/m 0,0 km/h (0 Bft) O-NO 60 0 min 0,000 mm 0,0 UV-I 0 W/m 9,6 C 11,5 C 0,0 km/h (0 Bft) 0,00 %
08.10.2015 20:21 11,5 C 89 % 1020,1 hPa 0,0 l/m 0,0 km/h (0 Bft) O-NO 59 0 min 0,000 mm 0,0 UV-I 0 W/m 9,8 C 11,5 C 0,0 km/h (0 Bft) 0,00 %
08.10.2015 20:26 11,4 C 89 % 1020,2 hPa 0,0 l/m 0,0 km/h (0 Bft) O-NO 58 0 min 0,000 mm 0,0 UV-I 0 W/m 9,7 C 11,4 C 0,0 km/h (0 Bft) 0,00 %
08.10.2015 20:31 11,4 C 89 % 1020,2 hPa 0,0 l/m 0,0 km/h (0 Bft) O-NO 59 0 min 0,000 mm 0,0 UV-I 0 W/m 9,7 C 11,4 C 0,0 km/h (0 Bft) 0,00 %
08.10.2015 20:36 11,3 C 89 % 1020,3 hPa 0,0 l/m 0,0 km/h (0 Bft) O-NO 61 0 min 0,000 mm 0,0 UV-I 0 W/m 9,6 C 11,3 C 0,0 km/h (0 Bft) 0,00 %
08.10.2015 20:41 11,3 C 89 % 1020,1 hPa 0,0 l/m 0,0 km/h (0 Bft) O-NO 64 0 min 0,000 mm 0,0 UV-I 0 W/m 9,6 C 11,3 C 0,0 km/h (0 Bft) 0,00 %
08.10.2015 20:46 11,3 C 89 % 1020,2 hPa 0,0 l/m 0,0 km/h (0 Bft) NO 44 0 min 0,000 mm 0,0 UV-I 0 W/m 9,6 C 11,3 C 0,0 km/h (0 Bft) 0,00 %
08.10.2015 20:51 11,2 C 90 % 1020,3 hPa 0,0 l/m 0,0 km/h (0 Bft) O-NO 60 0 min 0,000 mm 0,0 UV-I 0 W/m 9,6 C 11,2 C 0,0 km/h (0 Bft) 0,00 %
08.10.2015 20:56 11,2 C 90 % 1020,1 hPa 0,0 l/m 0,0 km/h (0 Bft) NO 46 0 min 0,000 mm 0,0 UV-I 0 W/m 9,6 C 11,2 C 0,0 km/h (0 Bft) 0,00 %
08.10.2015 21:01 11,2 C 90 % 1020,3 hPa 0,0 l/m 0,0 km/h (0 Bft) O-NO 58 0 min 0,000 mm 0,0 UV-I 0 W/m 9,6 C 11,2 C 0,0 km/h (0 Bft) 0,00 %
08.10.2015 21:06 11,1 C 90 % 1020,4 hPa 0,0 l/m 0,0 km/h (0 Bft) O 82 0 min 0,000 mm 0,0 UV-I 0 W/m 9,5 C 11,1 C 0,0 km/h (0 Bft) 0,00 %
08.10.2015 21:11 11,1 C 90 % 1020,4 hPa 0,0 l/m 0,4 km/h (0 Bft) SO 134 0 min 0,000 mm 0,0 UV-I 0 W/m 9,5 C 11,1 C 4,0 km/h (1 Bft) 0,00 %
08.10.2015 21:16 11,1 C 90 % 1020,2 hPa 0,0 l/m 0,4 km/h (0 Bft) SW 219 0 min 0,000 mm 0,0 UV-I 0 W/m 9,5 C 11,1 C 4,0 km/h (1 Bft) 0,00 %
08.10.2015 21:21 11,1 C 90 % 1020,4 hPa 0,0 l/m 0,0 km/h (0 Bft) N 354 0 min 0,000 mm 0,0 UV-I 0 W/m 9,5 C 11,1 C 0,0 km/h (0 Bft) 0,00 %
08.10.2015 21:26 11,1 C 89 % 1020,7 hPa 0,0 l/m 0,0 km/h (0 Bft) O 86 0 min 0,000 mm 0,0 UV-I 0 W/m 9,4 C 11,1 C 0,0 km/h (0 Bft) 0,00 %
08.10.2015 21:31 11,1 C 89 % 1020,7 hPa 0,0 l/m 0,0 km/h (0 Bft) NO 55 0 min 0,000 mm 0,0 UV-I 0 W/m 9,4 C 11,1 C 0,0 km/h (0 Bft) 0,00 %
08.10.2015 21:36 11,1 C 88 % 1020,8 hPa 0,0 l/m 0,0 km/h (0 Bft) NO 45 0 min 0,000 mm 0,0 UV-I 0 W/m 9,2 C 11,1 C 0,0 km/h (0 Bft) 0,00 %
08.10.2015 21:41 11,1 C 88 % 1020,6 hPa 0,0 l/m 0,0 km/h (0 Bft) NO 51 0 min 0,000 mm 0,0 UV-I 0 W/m 9,2 C 11,1 C 0,0 km/h (0 Bft) 0,00 %
08.10.2015 21:46 11,1 C 88 % 1020,6 hPa 0,0 l/m 0,0 km/h (0 Bft) NO 51 0 min 0,000 mm 0,0 UV-I 0 W/m 9,2 C 11,1 C 0,0 km/h (0 Bft) 0,00 %
08.10.2015 21:51 11,0 C 88 % 1020,7 hPa 0,0 l/m 0,0 km/h (0 Bft) O-SO 108 0 min 0,000 mm 0,0 UV-I 0 W/m 9,1 C 11,0 C 0,0 km/h (0 Bft) 0,00 %
08.10.2015 21:56 11,0 C 89 % 1020,7 hPa 0,0 l/m 0,0 km/h (0 Bft) O 90 0 min 0,000 mm 0,0 UV-I 0 W/m 9,3 C 11,0 C 0,0 km/h (0 Bft) 0,00 %
08.10.2015 22:01 11,0 C 89 % 1020,8 hPa 0,0 l/m 0,0 km/h (0 Bft) O 80 0 min 0,000 mm 0,0 UV-I 0 W/m 9,3 C 11,0 C 0,0 km/h (0 Bft) 0,00 %
08.10.2015 22:06 11,0 C 89 % 1020,9 hPa 0,0 l/m 0,0 km/h (0 Bft) O 94 0 min 0,000 mm 0,0 UV-I 0 W/m 9,3 C 11,0 C 0,0 km/h (0 Bft) 0,00 %
08.10.2015 22:11 11,0 C 89 % 1020,8 hPa 0,0 l/m 0,0 km/h (0 Bft) O-NO 63 0 min 0,000 mm 0,0 UV-I 0 W/m 9,3 C 11,0 C 0,0 km/h (0 Bft) 0,00 %
08.10.2015 22:16 11,0 C 89 % 1020,6 hPa 0,0 l/m 0,0 km/h (0 Bft) NO 50 0 min 0,000 mm 0,0 UV-I 0 W/m 9,3 C 11,0 C 0,0 km/h (0 Bft) 0,00 %
08.10.2015 22:21 11,0 C 89 % 1020,5 hPa 0,0 l/m 0,0 km/h (0 Bft) NO 50 0 min 0,000 mm 0,0 UV-I 0 W/m 9,3 C 11,0 C 0,0 km/h (0 Bft) 0,00 %
08.10.2015 22:26 10,9 C 90 % 1020,7 hPa 0,0 l/m 0,0 km/h (0 Bft) O-NO 59 0 min 0,000 mm 0,0 UV-I 0 W/m 9,3 C 10,9 C 0,0 km/h (0 Bft) 0,00 %
08.10.2015 22:31 10,9 C 91 % 1020,8 hPa 0,0 l/m 0,0 km/h (0 Bft) O-SO 121 0 min 0,000 mm 0,0 UV-I 0 W/m 9,5 C 10,9 C 0,0 km/h (0 Bft) 0,00 %
08.10.2015 22:36 10,9 C 91 % 1020,8 hPa 0,0 l/m 0,0 km/h (0 Bft) O-NO 61 0 min 0,000 mm 0,0 UV-I 0 W/m 9,5 C 10,9 C 0,0 km/h (0 Bft) 0,00 %
08.10.2015 22:41 10,9 C 91 % 1020,7 hPa 0,0 l/m 0,0 km/h (0 Bft) O-NO 78 0 min 0,000 mm 0,0 UV-I 0 W/m 9,5 C 10,9 C 0,0 km/h (0 Bft) 0,00 %
08.10.2015 22:46 10,8 C 91 % 1020,8 hPa 0,0 l/m 0,0 km/h (0 Bft) O 84 0 min 0,000 mm 0,0 UV-I 0 W/m 9,4 C 10,8 C 0,0 km/h (0 Bft) 0,00 %
08.10.2015 22:51 10,8 C 92 % 1020,7 hPa 0,0 l/m 0,0 km/h (0 Bft) O-SO 120 0 min 0,000 mm 0,0 UV-I 0 W/m 9,6 C 10,8 C 0,0 km/h (0 Bft) 0,00 %
08.10.2015 22:56 10,8 C 92 % 1020,9 hPa 0,3 l/m 0,0 km/h (0 Bft) W-SW 251 0 min 0,000 mm 0,0 UV-I 0 W/m 9,6 C 10,8 C 0,0 km/h (0 Bft) 0,00 %
08.10.2015 23:01 10,8 C 92 % 1020,9 hPa 0,0 l/m 0,0 km/h (0 Bft) SW 228 0 min 0,000 mm 0,0 UV-I 0 W/m 9,6 C 10,8 C 0,0 km/h (0 Bft) 0,00 %
08.10.2015 23:06 10,8 C 92 % 1020,8 hPa 0,0 l/m 0,0 km/h (0 Bft) S 184 0 min 0,000 mm 0,0 UV-I 0 W/m 9,6 C 10,8 C 0,0 km/h (0 Bft) 0,00 %
08.10.2015 23:11 10,8 C 92 % 1020,8 hPa 0,0 l/m 0,0 km/h (0 Bft) O-SO 116 0 min 0,000 mm 0,0 UV-I 0 W/m 9,6 C 10,8 C 0,0 km/h (0 Bft) 0,00 %
08.10.2015 23:16 10,8 C 93 % 1020,7 hPa 0,0 l/m 4,0 km/h (1 Bft) S 173 0 min 0,000 mm 0,0 UV-I 0 W/m 9,7 C 10,8 C 4,0 km/h (1 Bft) 0,00 %
08.10.2015 23:21 10,7 C 93 % 1020,9 hPa 0,0 l/m 0,0 km/h (0 Bft) O-SO 117 0 min 0,000 mm 0,0 UV-I 0 W/m 9,6 C 10,7 C 0,0 km/h (0 Bft) 0,00 %
08.10.2015 23:26 10,7 C 93 % 1020,9 hPa 0,0 l/m 0,4 km/h (0 Bft) SO 129 0 min 0,000 mm 0,0 UV-I 0 W/m 9,6 C 10,7 C 4,0 km/h (1 Bft) 0,00 %
08.10.2015 23:31 10,7 C 93 % 1020,7 hPa 0,0 l/m 0,4 km/h (0 Bft) W-NW 299 0 min 0,000 mm 0,0 UV-I 0 W/m 9,6 C 10,7 C 4,0 km/h (1 Bft) 0,00 %
08.10.2015 23:36 10,6 C 93 % 1021,0 hPa 0,3 l/m 1,4 km/h (1 Bft) S-SW 212 0 min 0,000 mm 0,0 UV-I 0 W/m 9,5 C 10,6 C 4,0 km/h (1 Bft) 0,00 %
08.10.2015 23:41 10,6 C 93 % 1020,9 hPa 0,0 l/m 1,4 km/h (1 Bft) W-SW 251 0 min 0,000 mm 0,0 UV-I 0 W/m 9,5 C 10,6 C 4,0 km/h (1 Bft) 0,00 %
08.10.2015 23:46 10,6 C 93 % 1021,0 hPa 0,0 l/m 0,4 km/h (0 Bft) SO 129 0 min 0,000 mm 0,0 UV-I 0 W/m 9,5 C 10,6 C 4,0 km/h (1 Bft) 0,00 %
08.10.2015 23:51 10,5 C 93 % 1020,8 hPa 0,0 l/m 0,0 km/h (0 Bft) SO 137 0 min 0,000 mm 0,0 UV-I 0 W/m 9,4 C 10,5 C 0,0 km/h (0 Bft) 0,00 %
08.10.2015 23:56 10,5 C 93 % 1020,9 hPa 0,0 l/m 0,7 km/h (0 Bft) S-SW 198 0 min 0,000 mm 0,0 UV-I 0 W/m 9,4 C 10,5 C 4,0 km/h (1 Bft) 0,00 %
_ Min-Zeit 23:51 16:11 00:25 - 04:10 - - - - - - 18:51 00:55 04:10 00:00
Minimum _ 10,5 C 75 % 1015,7 hPa - 0,0 km/h (0 Bft) - - - - - - 9,0 C 6,1 C 0,0 km/h (0 Bft) 0,00 %
_ Max-Zeit 16:06 05:45 23:36 02:20 00:55 - - 12:51 00:00 09:15 12:51 00:15 16:06 00:55 00:00
Maximum _ 14,1 C 98 % 1021,0 hPa 0,9 l/m 17,3 km/h
S (3 Bft)
- - 5 min 0,000 mm 1,0 UV-I 336 W/m 11,6 C 14,1 C 24,1 km/h
S (4 Bft)
0,00 %
Durchschnitt _ 11,7 C 92 % 1018,6 hPa #17,7 l/m 2,9 km/h (1 Bft) S-SW - #35 min. #0,000 mm 1,0 UV-I 129 W/m 10,3 C 11,5 C 5,1 km/h (1 Bft) 0,00 %